Newport, RI

12:40 AM EDT on May 22, 2018 (GMT -0400)
Newport State

Weather History for KUUU - December, 2012

Change the Weather History Date:

Thursday, December 27, 2012

  Actual Average Record
Temperature  
Mean Temperature 40 °F -  
Max Temperature 48 °F 37 °F 59 °F (2015)
Min Temperature 33 °F 22 °F 6 °F (1989)
Degree Days  
Heating Degree Days 24    
Moisture  
Dew Point 38 °F    
Average Humidity 91    
Maximum Humidity 100    
Minimum Humidity 78    
Precipitation  
Precipitation 0.43 in - - ()
Sea Level Pressure  
Sea Level Pressure 29.38 in    
Wind  
Wind Speed 19 mph (NNW)    
Max Wind Speed 33 mph    
Max Gust Speed 53 mph    
Visibility 5 miles    
Events Fog , Rain , Snow    
Averages and records for this station are not official NWS values.
T = Trace of Precipitation, MM = Missing Value Source: NWS Daily Summary

Daily Weather History Graph

Daily Weather History Graph

Search for Another Location

Airport or City:

Astronomy

Dec. 27, 2012 Rise Set
Actual Time 7:10 AM EST 4:22 PM EST
Civil Twilight 6:39 AM EST 4:53 PM EST
Nautical Twilight 6:04 AM EST 5:28 PM EST
Astronomical Twilight 5:30 AM EST 6:02 PM EST
Moon 4:03 PM EST (12/27) 6:19 AM EST (12/27)
Length of Visible Light 10h 14m
Length of Day
9h 11m
Full, 100% of the Moon is Illuminated
Dec 27
Full
Dec 28
Full
Jan 4
Last Quarter
Jan 11
New
Jan 18
First Quarter

Hourly Weather History & Observations

Time (EST) Temp. Windchill Dew Point Humidity Pressure Visibility Wind Dir Wind Speed Gust Speed Precip Events Conditions
12:53 AM 37.9 °F 26.8 °F 36.0 °F 93% 29.68 in 7.0 mi ENE 24.2 mph 35.7 mph 0.03 in Rain Rain
1:24 AM 37.4 °F 26.9 °F 35.6 °F 93% 29.65 in 10.0 mi East 20.7 mph 32.2 mph 0.00 in Rain Light Rain
1:53 AM 39.0 °F 29.0 °F 36.0 °F 89% 29.64 in 4.0 mi East 20.7 mph 36.8 mph 0.06 in Rain Heavy Rain
2:27 AM 39.2 °F 28.0 °F 37.4 °F 93% 29.52 in 4.0 mi East 26.5 mph 43.7 mph 0.11 in Rain Light Rain
2:53 AM 41.0 °F 29.8 °F 37.9 °F 89% 29.48 in 10.0 mi East 29.9 mph 43.7 mph 0.11 in Rain Light Rain
3:53 AM 44.1 °F 35.4 °F 41.0 °F 89% 29.44 in 10.0 mi East 21.9 mph 42.6 mph 0.00 in   Overcast
4:26 AM 44.6 °F 34.2 °F 42.8 °F 93% 29.40 in 8.0 mi East 33.4 mph 52.9 mph 0.01 in Rain Light Rain
4:50 AM 44.6 °F 36.6 °F 42.8 °F 93% 29.36 in 1.8 mi East 19.6 mph 48.3 mph 0.05 in Rain Heavy Rain
4:53 AM 44.1 °F 35.2 °F 42.1 °F 93% 29.37 in 1.8 mi East 23.0 mph 43.7 mph 0.07 in Rain Heavy Rain
4:58 AM 44.6 °F 35.7 °F 42.8 °F 93% 29.35 in 2.0 mi East 24.2 mph 42.6 mph 0.03 in Rain Heavy Rain
5:53 AM 46.9 °F - 44.1 °F 90% 29.33 in 9.0 mi East 27.6 mph 36.8 mph 0.06 in Rain Light Rain
6:53 AM 46.9 °F - 45.0 °F 93% 29.29 in 10.0 mi East 19.6 mph 34.5 mph 0.01 in Rain Light Rain
7:53 AM 48.0 °F - 45.0 °F 89% 29.26 in 6.0 mi East 23.0 mph 38.0 mph 0.00 in   Overcast
8:25 AM 48.2 °F - 44.6 °F 87% 29.25 in 1.8 mi East 19.6 mph 28.8 mph 0.02 in Rain Rain
8:53 AM 46.9 °F - 46.0 °F 97% 29.26 in 1.0 mi SE 9.2 mph - 0.09 in Rain Rain
8:59 AM 46.4 °F 41.5 °F 46.4 °F 100% 29.25 in 3.0 mi ESE 10.4 mph 19.6 mph 0.00 in Rain Light Rain
9:15 AM 46.4 °F 41.9 °F 46.4 °F 100% 29.25 in 2.0 mi SSE 9.2 mph - 0.00 in Rain Light Rain
9:36 AM 48.2 °F - 46.4 °F 93% 29.26 in 3.0 mi South 6.9 mph - 0.00 in   Overcast
9:53 AM 48.0 °F - 48.0 °F 100% 29.26 in 3.0 mi South 4.6 mph - 0.00 in   Overcast
10:53 AM 48.9 °F - 46.9 °F 93% 29.26 in 6.0 mi SSW 6.9 mph - 0.00 in Rain Light Rain
11:00 AM 48.2 °F - 46.4 °F 93% 29.25 in 5.0 mi SSW 4.6 mph - 0.00 in Rain Light Rain
11:40 AM 48.2 °F - 46.4 °F 93% 29.23 in 5.0 mi Variable 4.6 mph - 0.00 in   Overcast
11:53 AM 48.9 °F - 46.9 °F 93% 29.22 in 5.0 mi Variable 3.5 mph - 0.00 in   Overcast
12:00 PM 48.2 °F - 46.4 °F 93% 29.22 in 1.0 mi WNW 9.2 mph - N/A   Overcast
12:07 PM 46.4 °F 44.3 °F 44.6 °F 93% 29.21 in 0.2 mi West 4.6 mph - N/A Fog Fog
12:53 PM 45.0 °F 40.1 °F 44.1 °F 97% 29.21 in 1.8 mi NW 9.2 mph - 0.00 in Rain Light Rain
1:09 PM 42.8 °F 38.6 °F 42.8 °F 100% 29.21 in 2.5 mi NNW 6.9 mph - 0.00 in Rain Light Rain
1:20 PM 44.6 °F 39.7 °F 42.8 °F 93% 29.21 in 3.0 mi NNW 9.2 mph - 0.00 in Rain Light Rain
1:53 PM 43.0 °F 36.8 °F 41.0 °F 93% 29.23 in 3.0 mi NNW 11.5 mph - 0.00 in Rain Light Rain
2:53 PM 39.9 °F 31.4 °F 37.9 °F 93% 29.25 in 3.0 mi NW 16.1 mph 21.9 mph 0.00 in Rain Light Rain
3:17 PM 39.2 °F 30.2 °F 37.4 °F 93% 29.27 in 2.5 mi NW 17.3 mph 25.3 mph 0.00 in Rain Light Rain
3:31 PM 37.4 °F 27.5 °F 37.4 °F 100% 29.28 in 1.5 mi NW 18.4 mph 27.6 mph 0.00 in Snow Light Snow
3:53 PM 37.9 °F 27.6 °F 36.0 °F 93% 29.29 in 1.2 mi NW 20.7 mph 28.8 mph 0.00 in Snow Light Snow
4:10 PM 37.4 °F 27.5 °F 35.6 °F 93% 29.30 in 2.5 mi NW 18.4 mph 29.9 mph 0.00 in Rain Light Rain
4:19 PM 37.4 °F 27.8 °F 35.6 °F 93% 29.31 in 2.5 mi NW 17.3 mph 27.6 mph 0.00 in Rain Light Rain
4:31 PM 37.4 °F 26.9 °F 35.6 °F 93% 29.31 in 1.8 mi NW 20.7 mph 26.5 mph 0.00 in Snow Light Snow
4:40 PM 35.6 °F 24.5 °F 35.6 °F 100% 29.32 in 3.0 mi NW 20.7 mph 29.9 mph 0.00 in Snow Light Snow
4:53 PM 36.0 °F 25.0 °F 34.0 °F 93% 29.32 in 3.0 mi NW 20.7 mph 31.1 mph 0.00 in   Overcast
5:53 PM 36.0 °F 26.0 °F 34.0 °F 93% 29.38 in 8.0 mi NW 17.3 mph 28.8 mph 0.00 in Rain Light Rain
6:04 PM 35.6 °F 25.2 °F 33.8 °F 93% 29.39 in 10.0 mi NW 18.4 mph 28.8 mph 0.00 in Rain Light Rain
6:53 PM 35.1 °F 24.8 °F 30.9 °F 85% 29.43 in 10.0 mi NW 17.3 mph 31.1 mph 0.00 in   Overcast
7:12 PM 35.6 °F 24.8 °F 30.2 °F 81% 29.45 in 10.0 mi NW 19.6 mph 28.8 mph N/A   Overcast
7:53 PM 34.0 °F 21.5 °F 30.0 °F 85% 29.49 in 10.0 mi NW 24.2 mph 31.1 mph N/A   Overcast
8:30 PM 33.8 °F 21.3 °F 30.2 °F 87% 29.51 in 6.0 mi NW 24.2 mph 32.2 mph 0.00 in Snow Light Snow
8:51 PM 33.8 °F 21.6 °F 30.2 °F 87% 29.52 in 10.0 mi NW 23.0 mph 32.2 mph 0.00 in   Overcast
8:53 PM 33.1 °F 20.6 °F 30.0 °F 89% 29.52 in 10.0 mi NW 23.0 mph 38.0 mph 0.00 in   Overcast
9:14 PM 33.8 °F 22.5 °F 28.4 °F 81% 29.54 in 10.0 mi NW 19.6 mph 32.2 mph N/A   Overcast
9:35 PM 33.8 °F 22.2 °F 28.4 °F 81% 29.55 in 3.0 mi NW 20.7 mph 26.5 mph 0.00 in Snow Light Snow
9:39 PM 33.8 °F 23.2 °F 30.2 °F 87% 29.56 in 1.8 mi NW 17.3 mph 26.5 mph 0.00 in Snow Light Snow
9:59 PM 33.8 °F 25.3 °F 30.2 °F 87% 29.57 in 2.5 mi NW 11.5 mph 20.7 mph 0.00 in Snow Light Snow
10:02 PM 33.8 °F 25.8 °F 30.2 °F 87% 29.57 in 3.0 mi NW 10.4 mph 20.7 mph 0.00 in Snow Light Snow
10:44 PM 33.8 °F 23.9 °F 30.2 °F 87% 29.59 in 10.0 mi NNW 15.0 mph 24.2 mph 0.00 in   Overcast
10:53 PM 34.0 °F 23.8 °F 30.0 °F 85% 29.60 in 10.0 mi NW 16.1 mph 24.2 mph 0.00 in   Overcast
11:53 PM 33.1 °F 22.6 °F 27.0 °F 78% 29.62 in 10.0 mi WNW 16.1 mph 26.5 mph N/A   Overcast